Weather History for Crookston, MN

Change the Weather History Date:

Wednesday, January 9, 2013

  Actual Average Record
Temperature  
Mean Temperature 24 °F -  
Max Temperature 30 °F 12 °F 42 °F (2012)
Min Temperature 17 °F 0 °F -22 °F (1999)
Degree Days  
Heating Degree Days 42    
Moisture  
Dew Point 19 °F    
Average Humidity 81    
Maximum Humidity 93    
Minimum Humidity 69    
Precipitation  
Precipitation 0.00 in - - ()
Sea Level Pressure  
Sea Level Pressure 30.05 in    
Wind  
Wind Speed 19 mph (WSW)    
Max Wind Speed 31 mph    
Max Gust Speed 37 mph    
Visibility 9 miles    
Events      
Averages and records for this station are not official NWS values.
T = Trace of Precipitation, MM = Missing Value Source: NWS Daily Summary

Daily Weather History Graph

Daily Weather History Graph

Search for Another Location

Airport:

Trip Planner

Search our weather history database for the weather conditions in past years. The results will help you decide how hot, cold, wet, or windy it might be!

Date:

Astronomy

Jan. 09, 2013 Rise Set
Actual Time 8:13 AM CST 4:53 PM CST
Civil Twilight 7:38 AM CST 5:29 PM CST
Nautical Twilight 6:59 AM CST 6:08 PM CST
Astronomical Twilight 6:22 AM CST 6:45 PM CST
Moon 5:54 AM CST (1/9) 2:56 PM CST (1/9)
Length of Visible Light 9h 50m
Length of Day
8h 40m
Waning Crescent, 6% of the Moon is Illuminated
Jan 9
Waning Crescent
Jan 11
New
Jan 18
First Quarter
Jan 26
Full
Feb 3
Last Quarter

Hourly Weather History & Observations

Time (CST) Temp. Windchill Dew Point Humidity Pressure Visibility Wind Dir Wind Speed Gust Speed Precip Events Conditions
12:15 AM 30.2 °F 16.5 °F 26.6 °F 86% 29.70 in 7.0 mi WNW 24.2 mph 31.1 mph N/A   Overcast
12:34 AM 30.2 °F 15.4 °F 26.6 °F 86% 29.71 in 10.0 mi West 28.8 mph 32.2 mph N/A   Mostly Cloudy
12:55 AM 30.2 °F 15.7 °F 26.6 °F 86% 29.72 in 10.0 mi West 27.6 mph 32.2 mph N/A   Overcast
1:15 AM 28.4 °F 14.1 °F 24.8 °F 86% 29.74 in 10.0 mi West 24.2 mph - N/A   Overcast
1:34 AM 28.4 °F 14.4 °F 24.8 °F 86% 29.74 in 10.0 mi WNW 23.0 mph - N/A   Overcast
1:55 AM 28.4 °F 13.3 °F 24.8 °F 86% 29.76 in 7.0 mi WNW 27.6 mph 36.8 mph N/A   Overcast
2:15 AM 28.4 °F 12.5 °F 24.8 °F 86% 29.78 in 4.0 mi WNW 31.1 mph 36.8 mph N/A   Overcast
2:34 AM 28.4 °F 12.5 °F 24.8 °F 86% 29.80 in 3.0 mi WNW 31.1 mph 36.8 mph N/A   Overcast
2:55 AM 28.4 °F 12.7 °F 24.8 °F 86% 29.81 in 4.0 mi WNW 29.9 mph - N/A   Overcast
3:15 AM 26.6 °F 10.6 °F 24.8 °F 93% 29.83 in 4.0 mi WNW 28.8 mph 36.8 mph N/A   Overcast
3:34 AM 26.6 °F 11.4 °F 24.8 °F 93% 29.84 in 7.0 mi WNW 25.3 mph 33.4 mph N/A   Overcast
3:55 AM 26.6 °F 11.4 °F 23.0 °F 86% 29.86 in 5.0 mi WNW 25.3 mph 33.4 mph N/A   Overcast
4:14 AM 26.6 °F 11.4 °F 21.2 °F 80% 29.88 in 5.0 mi WNW 25.3 mph - N/A   Overcast
4:34 AM 24.8 °F 9.6 °F 21.2 °F 86% 29.90 in 10.0 mi WNW 23.0 mph - N/A   Overcast
4:55 AM 24.8 °F 9.3 °F 19.4 °F 80% 29.92 in 10.0 mi WNW 24.2 mph 27.6 mph N/A   Overcast
5:14 AM 24.8 °F 10.0 °F 19.4 °F 80% 29.93 in 10.0 mi WNW 21.9 mph - N/A   Overcast
5:34 AM 21.2 °F 5.6 °F 17.6 °F 86% 29.95 in 10.0 mi WNW 20.7 mph - N/A   Scattered Clouds
5:55 AM 21.2 °F 6.8 °F 17.6 °F 86% 29.96 in 10.0 mi WNW 17.3 mph - N/A   Clear
6:14 AM 21.2 °F 7.3 °F 15.8 °F 80% 29.98 in 10.0 mi WNW 16.1 mph - N/A   Clear
6:34 AM 19.4 °F 6.0 °F 15.8 °F 86% 30.01 in 10.0 mi WNW 13.8 mph - N/A   Clear
7:14 AM 19.4 °F 6.6 °F 14.0 °F 80% 30.05 in 10.0 mi WNW 12.7 mph - N/A   Clear
7:34 AM 17.6 °F 5.7 °F 14.0 °F 86% 30.06 in 10.0 mi WNW 10.4 mph - N/A   Clear
7:55 AM 19.4 °F 6.6 °F 15.8 °F 86% 30.07 in 10.0 mi WNW 12.7 mph - N/A   Clear
8:14 AM 17.6 °F 5.0 °F 14.0 °F 86% 30.08 in 10.0 mi WNW 11.5 mph - N/A   Clear
8:35 AM 17.6 °F 4.3 °F 12.2 °F 79% 30.09 in 10.0 mi WNW 12.7 mph - N/A   Clear
8:55 AM 17.6 °F 3.2 °F 14.0 °F 86% 30.10 in 10.0 mi WNW 15.0 mph - N/A   Clear
9:14 AM 19.4 °F 6.0 °F 15.8 °F 86% 30.12 in 10.0 mi WNW 13.8 mph - N/A   Clear
9:35 AM 19.4 °F 10.4 °F 15.8 °F 86% 30.13 in 10.0 mi West 6.9 mph - N/A   Clear
9:55 AM 19.4 °F 12.8 °F 15.8 °F 86% 30.14 in 10.0 mi West 4.6 mph - N/A   Clear
10:14 AM 19.4 °F 9.5 °F 15.8 °F 86% 30.16 in 10.0 mi West 8.1 mph - N/A   Clear
10:35 AM 21.2 °F 9.5 °F 15.8 °F 80% 30.16 in 10.0 mi WNW 11.5 mph - N/A   Clear
10:55 AM 21.2 °F 8.9 °F 15.8 °F 80% 30.16 in 10.0 mi WNW 12.7 mph - N/A   Clear
11:14 AM 23.0 °F 11.1 °F 17.6 °F 80% 30.16 in 10.0 mi WNW 12.7 mph - N/A   Clear
11:35 AM 23.0 °F 11.7 °F 17.6 °F 80% 30.16 in 10.0 mi WNW 11.5 mph - N/A   Clear
11:55 AM 24.8 °F 14.0 °F 17.6 °F 74% 30.16 in 10.0 mi NW 11.5 mph - N/A   Clear
12:14 PM 24.8 °F 14.6 °F 17.6 °F 74% 30.15 in 10.0 mi NW 10.4 mph - N/A   Clear
12:35 PM 24.8 °F 15.3 °F 17.6 °F 74% 30.14 in 10.0 mi WNW 9.2 mph - N/A   Clear
12:55 PM 24.8 °F 15.3 °F 17.6 °F 74% 30.14 in 10.0 mi NW 9.2 mph - N/A   Clear
1:14 PM 26.6 °F 19.1 °F 17.6 °F 69% 30.15 in 10.0 mi NW 6.9 mph - N/A   Clear
1:35 PM 26.6 °F 18.2 °F 17.6 °F 69% 30.17 in 10.0 mi WNW 8.1 mph - N/A   Clear
1:55 PM 26.6 °F 20.0 °F 17.6 °F 69% 30.17 in 10.0 mi WNW 5.8 mph - N/A   Scattered Clouds
2:14 PM 26.6 °F 21.2 °F 17.6 °F 69% 30.19 in 10.0 mi West 4.6 mph - N/A   Mostly Cloudy
2:35 PM 26.6 °F - 17.6 °F 69% 30.17 in 10.0 mi Calm Calm - N/A   Overcast
2:55 PM 26.6 °F 21.2 °F 17.6 °F 69% 30.17 in 10.0 mi South 4.6 mph - N/A   Overcast
3:14 PM 26.6 °F 19.1 °F 17.6 °F 69% 30.19 in 10.0 mi South 6.9 mph - N/A   Overcast
3:35 PM 26.6 °F 16.2 °F 19.4 °F 74% 30.21 in 10.0 mi SSW 11.5 mph - N/A   Overcast
3:55 PM 26.6 °F 15.2 °F 19.4 °F 74% 30.21 in 10.0 mi SSW 13.8 mph - N/A   Overcast
4:14 PM 26.6 °F 14.7 °F 19.4 °F 74% 30.20 in 10.0 mi South 15.0 mph - N/A   Overcast
4:35 PM 24.8 °F 11.5 °F 21.2 °F 86% 30.20 in 10.0 mi South 17.3 mph - N/A   Overcast
4:54 PM 24.8 °F 12.4 °F 19.4 °F 80% 30.19 in 10.0 mi South 15.0 mph - N/A   Overcast
5:14 PM 24.8 °F 13.4 °F 19.4 °F 80% 30.19 in 10.0 mi South 12.7 mph - N/A   Overcast
5:35 PM 24.8 °F 13.4 °F 19.4 °F 80% 30.16 in 10.0 mi South 12.7 mph - N/A   Mostly Cloudy
5:54 PM 23.0 °F 11.1 °F 19.4 °F 86% 30.15 in 10.0 mi South 12.7 mph - N/A   Clear
6:14 PM 23.0 °F 11.7 °F 19.4 °F 86% 30.14 in 10.0 mi South 11.5 mph - N/A   Clear
6:35 PM 23.0 °F 11.7 °F 19.4 °F 86% 30.14 in 10.0 mi South 11.5 mph - N/A   Clear
6:54 PM 21.2 °F 10.9 °F 17.6 °F 86% 30.13 in 10.0 mi SSE 9.2 mph - N/A   Clear
7:14 PM 21.2 °F 9.5 °F 17.6 °F 86% 30.12 in 10.0 mi SSE 11.5 mph - N/A   Clear
7:35 PM 21.2 °F 9.5 °F 17.6 °F 86% 30.12 in 10.0 mi SSE 11.5 mph - N/A   Clear
7:54 PM 19.4 °F 8.6 °F 17.6 °F 93% 30.11 in 10.0 mi SSE 9.2 mph - N/A   Clear
8:14 PM 19.4 °F 7.2 °F 17.6 °F 93% 30.10 in 10.0 mi SSE 11.5 mph - N/A   Clear
8:35 PM 21.2 °F 8.3 °F 17.6 °F 86% 30.08 in 10.0 mi SSE 13.8 mph - N/A   Clear
8:54 PM 21.2 °F 7.8 °F 17.6 °F 86% 30.07 in 10.0 mi SSE 15.0 mph - N/A   Clear
9:14 PM 24.8 °F 10.7 °F 17.6 °F 74% 30.06 in 10.0 mi SSE 19.6 mph - N/A   Clear
9:35 PM 24.8 °F 11.1 °F 19.4 °F 80% 30.05 in 10.0 mi SSE 18.4 mph - N/A   Clear
9:54 PM 26.6 °F 13.8 °F 19.4 °F 74% 30.05 in 10.0 mi South 17.3 mph - N/A   Clear
10:14 PM 26.6 °F 14.3 °F 19.4 °F 74% 30.04 in 10.0 mi South 16.1 mph 21.9 mph N/A   Clear
10:35 PM 26.6 °F 15.2 °F 17.6 °F 69% 30.05 in 10.0 mi South 13.8 mph - N/A   Clear
10:54 PM 26.6 °F 14.7 °F 19.4 °F 74% 30.05 in 10.0 mi South 15.0 mph - N/A   Clear
11:15 PM 26.6 °F 16.2 °F 17.6 °F 69% 30.05 in 10.0 mi South 11.5 mph - N/A   Clear
11:35 PM 26.6 °F 14.7 °F 19.4 °F 74% 30.04 in 10.0 mi South 15.0 mph - N/A   Clear
11:54 PM 26.6 °F 14.7 °F 19.4 °F 74% 30.03 in 10.0 mi South 15.0 mph - N/A   Clear